Retour au catalogue

FENGYUN 1C DEB

ActifSSO
NORAD 30665·DEBRIS·🇨🇳 China

Lancé May 10, 1999 depuis Taiyuan Satellite Launch Center

Loading…

Prochains Passages (prochaines 24 heures)

TLE

FraisSource: Space-Track

Époque: Sep 14, 2026, 09:41 UTC

1 30665U 99025APX 26257.40390177  .00001479  00000-0  79006-3 0  9994
2 30665  99.2235 242.1241 0067822 147.6903  12.2726 14.13689594998638

Suivez FENGYUN 1C DEB en temps réel avec AllMySat

Download on the App Store